Regional Weather Roundup
Issued by NWS

Home | Current Version | Previous Version | Text Only | Print | Product List | Glossary Off
Versions: 1 2 3 4 5 6 7 8 9 10 11 12 13 14 15 16 17 18 19 20 21 22 23 24 25 26 27 28 29 30 31 32 33 34 35 36 37 38 39 40 41 42 43 44 45 46 47 48 49 50

000
ASUS45 KBOU 221207
RWRCO

WEATHER ROUNDUP FOR COLORADO
NATIONAL WEATHER SERVICE DENVER/BOULDER CO
600 AM MDT SAT JUL 22 2017

NOTE: "FAIR" INDICATES FEW OR NO CLOUDS BELOW 12000 FEET WITH NO
SIGNIFICANT WEATHER AND/OR OBSTRUCTIONS TO VISIBILITY.

COZ001>005-013-030-031-221300-
...NORTHWEST COLORADO...

CITY           SKY/WX    TMP DP  RH WIND       PRES   REMARKS
CRAIG          FAIR      53  50  89 E3        30.29S
HAYDEN         FAIR      54  46  76 E7        30.31S
MEEKER         FAIR      55  51  86 CALM      30.30R
RABBIT EARS PA FAIR      48  41  76 W9        30.55S
STEAMBOAT SPGS FAIR      49  48  96 CALM      30.34R
WALDEN         FAIR      43  41  93 E5        30.42R
$$

COZ006>008-011-221300-
...WEST CENTRAL VALLEYS...

CITY           SKY/WX    TMP DP  RH WIND       PRES   REMARKS
GRAND JUNCTION FAIR      63  62  97 E6        30.17R
MONTROSE       FAIR      61  57  87 S6        30.23F
EAGLE          FAIR      58  56  93 SW3       30.34R
RIFLE          FAIR      60  56  86 CALM      30.24R
DELTA          FAIR      68  58  70 NE5       30.20R
NUCLA          FAIR      61  54  77 CALM      30.26S
$$

COZ017>023-064>068-221300-
...SOUTHWEST COLORADO...

CITY           SKY/WX    TMP DP  RH WIND       PRES   REMARKS
DURANGO        FAIR      59  53  80 NE5       30.24F
CORTEZ         MOCLDY    59  57  93 NE5       30.20S
PAGOSA SPRINGS FAIR      56  53  89 CALM      30.32S
TELLURIDE      CLOUDY    53  50  91 CALM      30.44R
WOLF CREEK PAS FAIR      48  37  66 CALM      30.67S
$$

COZ009-010-012-014-032>034-037-058>063-221300-
...CENTRAL COLORADO...

CITY           SKY/WX    TMP DP  RH WIND       PRES   REMARKS
ASPEN          FAIR      53  50  89 S3        30.36R
BUENA VISTA    LGT RAIN  57  47  69 NW12      30.36S
COPPER MTN     FAIR      54  37  54 W6        30.65R
BERTHOUD PASS  FAIR      41  28  60 N8G20     30.67S
COTTONWOOD PAS CLOUDY    59  41  51 W5        30.48S
GUNNISON       FAIR      57  52  83 VRB7      30.36R
KREMMLING      FAIR      55  52  88 CALM      30.39R
LEADVILLE      FAIR      47  43  86 N6        30.49R
MONARCH PASS   FAIR      50  37  62 SW6       30.74R
SALIDA         FAIR      62  49  63 CALM      30.41S
SUNLIGHT       FAIR      48  39  71 NE5       30.59R
WILKERSON PASS FAIR      50  37  62 W8        30.60R
$$

COZ069>075-221300-
...SAN LUIS VALLEY/SANGRE DE CRISTO MOUNTAINS...

CITY           SKY/WX    TMP DP  RH WIND       PRES   REMARKS
ALAMOSA        FAIR      55  51  86 CALM      30.32R
DEL NORTE      FAIR      58  47  66 W12       30.35S
LA VETA PASS   NOT AVBL
SAGUACHE         N/A    N/A N/A N/A MISG        N/A
$$

COZ035-036-038>040-221300-
...NORTHERN COLORADO FRONT RANGE...

CITY           SKY/WX    TMP DP  RH WIND       PRES   REMARKS
DENVER INTL AP MOCLDY    62  58  86 W8        30.14R
DMNS CITY PARK   N/A     62  59  90 SW1G9     30.14R
AURORA         MOCLDY    61  58  91 SW3       30.16R
FRONT RANGE AP FAIR      61  59  94 W6        30.15R
ERIE MUNI ARPT FAIR      60  58  94 CALM      30.13S
BOULDER MUN AP FAIR      61  55  82 CALM      30.14R
CENTENNIAL     MOCLDY    64  55  72 W6        30.17R
BROOMFIELD     FAIR      63  54  72 NW7       30.15S
FORT COLLINS   FAIR      60  56  86 NE5       30.12S
LONGMONT       FAIR      60  57  87 CALM      30.14R
$$

COZ041-046-047-076>085-087-088-221300-
...PIKES PEAK/PALMER DIVIDE AND SOUTHERN FOOTHILLS...

CITY           SKY/WX    TMP DP  RH WIND       PRES   REMARKS
COLO. SPRINGS  MOCLDY    63  57  81 E3        30.21R
A. F. ACADEMY  CLOUDY    63  52  68 S8        30.22R
SCHRIEVER AFB  MOCLDY    60  56  87 E3        30.21R
CHEYENNE MTN   CLOUDY    63  50  63 N5        30.19R
ELLICOTT       FAIR     N/A N/A N/A S5        30.19R
FALCON           N/A     58  56  91 NW8       30.26R
FORT CARSON    CLOUDY    62  57  86 SE7       30.16S
LIMON          FAIR      60  59  96 SW3       30.17R
MONUMENT HILL  FAIR      59  52  77 SW6       30.26R
CANON CITY     CLEAR     70  57  64 W7        30.15R
WALSENBURG     FAIR      64  52  63 SW6       30.21S
TRINIDAD       FAIR      60  51  72 W9        30.21R
$$

COZ042>045-048>051-090-091-221300-
...NORTHEAST COLORADO...

CITY           SKY/WX    TMP DP  RH WIND       PRES   REMARKS
GREELEY ARPT   FAIR      60  57  89 NW7       30.11S
AKRON          FAIR      64  60  87 W10       30.11R
BURLINGTON     FAIR      64  60  87 W9        30.05R
WRAY           NOT AVBL
YUMA           FAIR      63  52  67 W10       30.04S
STERLING       FAIR      64  63  94 NW9       30.04F
HOLYOKE        FAIR      72  61  68 NW5       30.05R
FORT MORGAN    FAIR      62  58  88 SE7       30.11R
$$

COZ086-089-092>099-221300-
...SOUTHEAST COLORADO...

CITY           SKY/WX    TMP DP  RH WIND       PRES   REMARKS
PUEBLO         FAIR      67  56  67 S3        30.11S
LA JUNTA       FAIR      68  56  65 SW7       30.10S
LAMAR          FAIR      68  58  70 W10       30.04R
SPRINGFIELD      N/A     61  56  83 NW8       30.08S
$$



USA.gov is the U.S. government's official web portal to all federal, state and local government web resources and services.